This is the latest recevied weather packets stored in our database for station/object EFOU. If no packets are shown the sender has not sent any weather packets the latest 10 day(s).
| Time | Temp. | Humidity | Pressure | Rain* | Wind** | Luminosity | Snow |
|---|---|---|---|---|---|---|---|
| 1778306851 | 10° C | 35% | 1027.3 hPa | - | - | - | - |
| 1778304451 | 8.33° C | 45% | 1027.4 hPa | - | - | - | - |
| 1778303252 | 7.78° C | 46% | 1027.5 hPa | - | - | - | - |
| 1778302051 | 6.67° C | 48% | 1027.6 hPa | - | - | - | - |
| 1778300851 | 5.56° C | 50% | 1027.7 hPa | - | - | - | - |
| 1778299651 | 5° C | 52% | 1027.7 hPa | - | - | - | - |
| 1778298451 | 4.44° C | 53% | 1027.8 hPa | - | - | - | - |
| 1778297251 | 3.33° C | 57% | 1027.9 hPa | - | - | - | - |
| 1778296050 | 1.67° C | 64% | 1027.9 hPa | - | - | - | - |
| 1778294851 | -0.56° C | 73% | 1028.1 hPa | - | - | - | - |
| 1778293651 | -0.56° C | 74% | 1028.1 hPa | - | - | - | - |
| 1778292451 | -0.56° C | 74% | 1028.1 hPa | - | - | - | - |
| 1778291250 | -0.56° C | 71% | 1028.2 hPa | - | - | - | - |
| 1778290051 | 0.56° C | 65% | 1028.1 hPa | - | - | - | - |
| 1778288850 | 1.11° C | 64% | 1028.1 hPa | - | - | - | - |
| 1778287650 | 0.56° C | 68% | 1028.1 hPa | - | - | - | - |
| 1778286451 | 0.56° C | 68% | 1028.1 hPa | - | - | - | - |
| 1778285250 | 2.78° C | 54% | 1028.1 hPa | - | - | - | - |
| 1778284050 | 3.89° C | 49% | 1028 hPa | - | - | - | - |
| 1778282850 | 4.44° C | 50% | 1028 hPa | - | - | - | - |
| 1778281650 | 4.44° C | 48% | 1028 hPa | - | - | - | - |
| 1778280450 | 5° C | 47% | 1028 hPa | - | - | - | - |
| 1778279250 | 4.44° C | 49% | 1028 hPa | - | - | - | - |
| 1778278050 | 2.22° C | 64% | 1028 hPa | - | - | - | - |
| 1778276850 | 2.78° C | 67% | 1027.9 hPa | - | - | - | - |
* Rain since midnight (hover to see other rain measurements)
** Current wind speed in m/s (hover to see current wind gust speed)